Wind_Speed
3 4 4 4 3 3 3 2 2 2 2 3 4 5 5 6 6 7 8 8 9 9 9 9 9 8 8 9 9 9 9 9 8 8 7 7 7 6 5 6 8 10 11
3 4 3 3 3 3 2 1 1 1 2 3 4 5 6 6 7 8 8 8 9 10 10 9 9 8 8 8 8 8 8 8 7 7 6 6 6 6 5 6 7 9 10
3 3 2 2 2 2 1 0 0 2 3 4 5 6 6 7 8 8 9 9 10 10 10 10 9 9 8 8 7 7 7 7 6 6 6 5 5 5 5 6 7 9 10
3 3 2 2 2 1 1 1 1 2 4 5 6 6 7 8 8 9 9 10 10 10 11 11 11 10 9 8 8 7 6 6 5 5 4 4 4 4 5 6 7 8 9
2 2 2 2 1 1 2 2 3 3 5 5 6 7 7 8 9 10 10 11 11 11 11 12 12 11 10 8 8 7 6 5 5 4 3 2 2 3 4 5 7 8 9
2 1 1 1 2 2 3 4 4 5 6 7 8 8 9 10 10 11 11 12 12 12 12 13 12 12 11 9 8 7 6 6 5 4 3 1 0 2 3 5 6 7 9
1 1 1 2 3 4 4 5 6 7 8 9 9 10 11 11 12 13 13 14 14 14 14 14 13 13 12 11 10 9 8 7 6 5 4 2 2 3 4 5 6 7 9
1 2 3 4 5 6 6 7 8 9 10 11 12 13 13 14 14 15 15 16 16 16 16 16 15 15 14 13 12 10 9 8 7 6 6 5 4 5 6 6 7 8 9
3 4 5 6 7 7 8 9 10 12 13 14 15 16 16 16 17 18 18 18 18 18 18 18 18 17 16 15 14 12 11 10 9 8 7 7 6 7 8 8 8 9 9
5 6 7 8 9 9 10 11 12 14 15 16 17 17 17 18 18 19 20 20 20 20 20 20 20 20 18 17 16 14 13 11 10 10 9 9 8 9 10 11 10 10 10
7 8 9 10 11 11 11 13 14 15 16 17 17 17 17 17 18 19 19 19 19 20 19 19 20 21 20 19 18 17 16 14 12 11 11 11 10 10 11 13 13 12 12
9 9 11 12 12 12 13 13 14 15 16 17 17 17 17 17 17 17 17 17 18 18 18 19 19 20 20 20 20 19 18 16 14 13 12 13 12 11 12 13 15 15 14
9 10 11 12 12 13 13 14 14 15 16 16 16 16 15 15 15 16 16 16 17 17 18 18 17 17 18 19 20 20 19 18 16 15 14 14 14 14 14 15 16 16 16
9 10 11 11 12 12 13 13 14 14 14 14 14 14 14 14 14 14 14 15 15 15 15 16 16 16 17 17 19 19 19 19 17 16 16 16 16 16 15 16 17 18 18
11 11 12 12 12 12 13 13 13 13 12 12 13 13 13 14 14 14 14 15 15 14 14 14 14 15 16 16 18 18 18 18 17 17 16 16 17 17 16 17 18 19 20
11 11 11 11 11 12 12 12 12 12 11 11 11 12 12 13 13 13 14 14 14 15 15 15 15 15 16 16 17 18 19 19 18 18 18 17 17 17 16 17 18 20 22
11 10 10 10 11 11 10 11 10 9 9 10 11 11 12 12 12 12 13 13 14 14 15 15 15 15 16 16 17 18 19 20 20 19 19 19 19 18 18 18 19 20 23
10 10 11 10 10 10 9 8 8 8 9 10 11 11 11 12 12 12 12 13 13 13 13 14 14 15 16 16 17 18 19 20 21 21 20 20 20 20 20 19 20 21 22
11 11 10 9 8 8 7 7 7 7 8 9 9 9 9 10 10 10 10 11 11 12 12 13 13 14 15 16 17 17 19 20 20 21 22 21 22 22 22 22 21 21 23
9 9 8 6 6 5 5 5 6 6 7 7 7 7 8 9 9 9 9 10 10 11 11 11 11 12 13 14 15 17 18 18 19 20 21 22 22 23 23 24 23 23 23
7 7 7 4 4 4 3 3 4 4 5 6 6 7 7 8 8 8 9 9 9 10 10 10 10 11 12 13 14 15 16 18 19 20 21 22 22 23 24 25 25 25 25
6 5 5 3 2 2 2 2 2 3 4 5 6 7 7 7 8 8 9 9 9 9 9 9 10 10 11 11 13 14 15 16 17 18 19 21 22 23 24 25 26 27 27
5 5 4 4 2 2 1 1 2 3 4 5 6 7 7 8 8 9 9 10 10 10 10 10 11 11 11 12 13 14 15 15 16 17 18 19 21 22 24 25 26 27 28
5 5 5 4 3 2 1 1 2 3 4 5 6 7 8 9 9 10 10 10 11 11 11 12 12 13 13 13 14 15 16 17 17 18 19 20 21 22 23 25 26 28 29
5 5 5 4 3 1 1 2 2 3 5 6 7 9 10 10 11 11 11 11 12 12 13 13 14 14 15 15 15 16 17 18 19 20 21 21 22 23 24 25 26 28 29
5 5 4 3 2 1 1 2 3 4 6 7 8 9 10 11 12 12 13 13 14 14 15 16 16 17 17 18 18 18 19 19 20 21 22 23 24 25 25 26 28 29 30
Wind_Direction
124 110 111 110 111 107 94 81 68 45 8 350 340 333 331 330 330 332 334 336 340 343 346 350 355 4 10 14 17 19 22 28 33 39 44 49 56 63 78 109 122 129 134
133 120 123 120 119 117 110 100 81 17 327 318 316 316 316 317 319 321 324 325 328 332 334 337 341 348 356 1 6 11 13 20 28 34 40 50 58 60 79 113 124 132 137
135 126 131 127 129 129 135 152 294 307 305 304 304 304 304 306 308 310 313 316 319 322 324 325 328 332 338 344 352 0 5 8 17 24 37 53 59 63 83 108 123 135 140
138 137 143 139 138 151 186 235 278 290 292 295 297 296 297 297 299 302 306 310 311 312 312 312 314 316 320 326 333 340 348 354 360 9 31 51 60 71 89 110 124 136 142
147 149 160 156 167 210 237 255 272 281 284 288 289 290 292 293 294 297 300 303 303 304 304 303 304 304 307 312 316 321 326 333 340 346 4 38 66 90 109 121 131 140 149
168 185 205 212 236 251 256 266 276 282 284 286 286 285 287 289 291 292 294 295 296 296 296 297 298 298 299 301 302 305 310 310 312 316 321 336 97 146 147 144 143 148 155
205 282 283 276 280 283 284 285 285 287 288 288 287 285 284 285 288 289 291 291 292 292 291 291 292 292 293 293 292 292 294 295 289 286 285 277 239 201 182 171 162 161 163
265 301 304 300 296 294 293 294 293 293 293 291 288 286 283 283 284 284 286 288 289 288 286 285 286 287 286 286 285 284 285 284 279 270 264 261 249 223 200 188 177 172 169
287 296 299 300 297 294 294 295 293 291 290 289 288 285 281 280 280 282 282 283 284 283 281 280 280 282 281 281 281 281 280 279 274 264 260 257 250 233 216 202 191 184 179
283 291 295 296 294 291 288 289 289 288 287 286 285 283 280 279 280 281 279 278 280 281 279 277 278 277 277 275 276 277 277 276 273 263 257 255 250 237 224 214 203 195 190
269 282 291 294 291 289 287 286 284 286 285 284 282 281 280 279 280 282 280 278 278 279 277 277 275 272 271 270 271 273 273 270 269 265 258 254 248 239 227 220 214 206 199
262 278 288 289 289 286 287 286 283 285 284 283 282 281 279 280 280 280 280 278 278 277 276 277 274 270 268 267 267 269 269 267 265 263 257 253 246 240 231 223 219 214 209
263 278 286 284 284 284 284 286 285 285 284 284 282 280 280 279 279 280 281 280 279 276 276 276 275 271 268 267 265 266 267 268 265 260 256 252 246 242 236 230 223 219 216
262 274 281 281 281 281 282 283 284 283 282 282 281 279 278 280 282 281 281 283 283 280 276 275 273 271 269 269 267 266 265 263 261 259 257 253 248 243 238 233 228 223 220
258 267 273 277 278 281 283 282 281 283 280 278 281 282 282 282 284 284 286 285 282 280 277 275 274 270 269 268 264 262 260 259 259 257 257 256 249 244 242 235 232 227 224
257 265 273 277 280 286 286 284 283 284 282 280 283 286 287 287 288 288 287 285 283 280 278 276 274 271 268 267 262 259 259 259 258 257 257 256 249 249 244 238 237 232 228
255 260 273 277 284 288 292 291 287 286 285 286 292 295 295 294 295 295 293 289 287 284 281 278 275 272 269 266 262 259 260 260 259 257 256 254 250 250 249 245 240 237 233
261 269 273 278 286 291 293 295 290 290 290 292 298 300 300 300 299 297 295 293 291 288 285 281 277 274 271 269 266 262 260 260 259 257 256 254 250 248 249 248 245 241 236
257 265 267 273 283 289 291 297 297 296 293 297 302 305 307 308 308 306 303 300 298 295 292 287 280 276 273 270 268 265 262 259 258 257 256 256 254 251 249 248 248 245 242
247 251 250 261 276 283 292 300 305 304 302 307 313 316 318 318 318 317 315 311 308 304 300 296 289 283 277 274 271 268 265 263 260 258 257 257 255 253 251 250 249 247 245
242 237 233 251 266 276 290 303 311 312 314 318 324 325 323 322 323 324 324 324 321 316 310 303 297 293 288 282 276 271 267 265 263 261 259 258 256 254 251 250 249 247 246
211 212 223 226 243 260 278 304 316 318 321 327 332 334 332 331 332 333 332 330 327 325 320 313 306 301 297 291 285 280 274 269 267 264 262 260 259 256 254 252 250 249 247
184 194 200 195 193 192 225 310 326 328 327 330 332 333 335 337 337 336 336 335 333 330 326 320 313 307 302 296 292 288 284 278 272 269 267 264 261 259 257 254 252 250 249
160 172 175 171 166 170 226 314 325 327 329 333 336 337 336 335 336 336 336 335 333 329 326 321 315 310 305 300 294 290 287 284 280 276 272 269 265 262 260 257 254 251 249
138 148 150 150 156 175 270 307 320 330 338 343 344 343 340 336 334 334 335 333 330 328 325 321 316 311 306 302 298 293 289 285 282 279 276 272 269 266 262 259 256 253 251
133 137 140 144 161 231 298 328 340 343 344 346 346 343 338 335 335 335 333 330 328 326 324 321 316 311 307 303 300 296 292 288 284 281 278 275 272 269 265 262 259 256 254
Height
5914 5913 5914 5915 5915 5916 5916 5916 5916 5916 5916 5916 5916 5916 5915 5915 5914 5914 5913 5913 5912 5911 5910 5909 5909 5908 5908 5908 5907 5907 5906 5905 5904 5903 5903 5902 5901 5900 5900 5899 5899 5899 5900
5914 5913 5914 5914 5915 5916 5916 5916 5916 5916 5916 5916 5916 5915 5915 5915 5914 5913 5913 5912 5911 5911 5910 5909 5909 5908 5908 5907 5907 5907 5906 5905 5904 5904 5903 5903 5902 5901 5900 5900 5900 5901 5902
5913 5913 5914 5914 5915 5915 5915 5916 5916 5916 5916 5915 5915 5915 5914 5914 5913 5913 5912 5911 5911 5910 5909 5908 5908 5908 5907 5907 5907 5906 5906 5905 5905 5904 5904 5903 5903 5902 5902 5901 5902 5902 5903
5912 5913 5913 5914 5914 5914 5915 5915 5915 5915 5915 5914 5914 5914 5913 5913 5912 5912 5911 5911 5910 5909 5908 5908 5907 5907 5907 5906 5906 5906 5905 5905 5905 5904 5904 5904 5903 5903 5903 5902 5903 5904 5904
5912 5912 5913 5913 5913 5913 5913 5914 5913 5913 5913 5913 5912 5912 5912 5911 5911 5910 5910 5909 5909 5908 5907 5906 5906 5906 5906 5906 5905 5905 5905 5904 5904 5904 5904 5904 5904 5904 5904 5903 5904 5904 5905
5911 5911 5911 5911 5912 5912 5912 5912 5912 5912 5911 5911 5911 5910 5910 5909 5909 5908 5908 5907 5907 5906 5906 5905 5904 5904 5904 5904 5904 5904 5904 5904 5904 5904 5904 5904 5904 5904 5904 5904 5905 5905 5906
5909 5910 5910 5910 5910 5910 5910 5910 5910 5910 5909 5909 5909 5908 5908 5907 5906 5906 5906 5905 5905 5904 5903 5903 5903 5903 5903 5903 5903 5903 5903 5903 5903 5903 5903 5903 5904 5904 5904 5905 5905 5906 5907
5908 5908 5908 5908 5908 5908 5908 5908 5907 5907 5907 5906 5906 5905 5905 5904 5904 5903 5903 5902 5902 5901 5901 5901 5900 5900 5900 5901 5901 5901 5901 5902 5902 5902 5902 5902 5903 5903 5903 5904 5905 5906 5907
5906 5906 5906 5906 5906 5905 5905 5905 5905 5905 5904 5903 5903 5902 5902 5901 5901 5900 5900 5899 5899 5898 5898 5898 5897 5897 5898 5898 5898 5899 5899 5900 5900 5900 5900 5901 5901 5902 5903 5904 5904 5905 5906
5904 5904 5904 5904 5903 5903 5903 5903 5902 5902 5901 5900 5899 5898 5898 5897 5897 5896 5896 5895 5895 5895 5894 5894 5894 5894 5894 5895 5895 5896 5896 5897 5897 5898 5898 5899 5899 5900 5901 5902 5903 5904 5905
5902 5902 5902 5902 5901 5901 5900 5900 5899 5898 5897 5896 5895 5894 5894 5893 5893 5892 5892 5891 5891 5890 5890 5890 5890 5890 5890 5891 5892 5892 5893 5894 5894 5895 5895 5896 5897 5898 5899 5900 5902 5903 5904
5899 5899 5899 5899 5899 5898 5898 5897 5896 5895 5894 5893 5891 5891 5890 5889 5889 5888 5888 5887 5887 5887 5887 5887 5886 5886 5886 5887 5888 5889 5889 5890 5891 5892 5893 5893 5894 5895 5896 5898 5899 5901 5902
5896 5896 5896 5896 5895 5895 5894 5894 5893 5891 5890 5889 5888 5887 5886 5886 5885 5885 5884 5884 5883 5883 5883 5883 5883 5883 5883 5883 5884 5885 5885 5886 5887 5889 5889 5889 5890 5891 5893 5894 5896 5898 5900
5893 5894 5893 5893 5892 5892 5891 5890 5889 5888 5887 5886 5885 5884 5883 5883 5882 5882 5881 5880 5880 5879 5879 5879 5879 5879 5880 5880 5880 5881 5881 5882 5883 5884 5885 5886 5887 5888 5889 5890 5892 5894 5897
5889 5890 5890 5889 5889 5889 5888 5887 5886 5885 5884 5883 5882 5881 5880 5880 5879 5879 5878 5877 5877 5876 5876 5876 5876 5876 5876 5876 5876 5877 5877 5878 5879 5880 5881 5882 5882 5883 5885 5887 5888 5891 5893
5885 5885 5886 5886 5886 5885 5885 5884 5883 5882 5881 5880 5879 5879 5878 5877 5876 5876 5875 5874 5874 5873 5873 5873 5873 5873 5873 5873 5873 5873 5873 5874 5875 5876 5877 5878 5879 5880 5881 5883 5884 5887 5889
5880 5880 5881 5882 5882 5882 5881 5881 5880 5879 5878 5877 5877 5876 5875 5874 5874 5873 5872 5871 5871 5870 5870 5869 5869 5869 5869 5869 5869 5869 5870 5870 5871 5872 5873 5874 5875 5876 5877 5879 5880 5882 5885
5876 5877 5878 5879 5879 5879 5879 5878 5878 5877 5876 5875 5874 5873 5873 5872 5871 5870 5869 5868 5867 5867 5866 5866 5865 5865 5865 5865 5865 5866 5866 5867 5867 5867 5868 5870 5871 5872 5874 5875 5877 5878 5880
5873 5874 5875 5876 5876 5877 5876 5876 5876 5875 5874 5873 5872 5871 5870 5869 5868 5867 5866 5865 5864 5863 5863 5862 5862 5862 5861 5861 5861 5862 5862 5862 5863 5863 5864 5865 5867 5868 5869 5871 5872 5874 5875
5870 5871 5873 5874 5875 5875 5875 5874 5874 5873 5872 5871 5870 5869 5868 5867 5866 5865 5864 5863 5861 5860 5860 5859 5858 5858 5858 5857 5857 5857 5857 5858 5858 5859 5859 5860 5862 5863 5864 5866 5867 5869 5871
5868 5869 5871 5872 5873 5873 5873 5873 5872 5872 5871 5870 5869 5868 5867 5865 5864 5863 5861 5860 5859 5858 5857 5856 5855 5855 5854 5854 5854 5854 5854 5854 5854 5854 5854 5855 5856 5858 5859 5860 5862 5863 5865
5866 5869 5870 5871 5871 5872 5872 5872 5871 5871 5870 5868 5867 5866 5865 5863 5862 5860 5859 5858 5857 5855 5854 5853 5852 5851 5851 5851 5850 5850 5850 5850 5849 5850 5850 5850 5851 5852 5853 5854 5856 5857 5859
5866 5868 5869 5870 5870 5871 5871 5870 5870 5870 5869 5867 5866 5865 5863 5861 5860 5858 5857 5856 5854 5853 5852 5851 5849 5849 5848 5847 5847 5846 5845 5845 5845 5846 5845 5845 5846 5846 5847 5848 5849 5851 5852
5865 5867 5868 5869 5869 5870 5870 5869 5869 5868 5867 5866 5864 5863 5861 5859 5858 5857 5855 5854 5852 5851 5849 5848 5847 5845 5844 5844 5843 5842 5842 5841 5840 5840 5841 5840 5840 5840 5841 5842 5843 5844 5845
5865 5866 5867 5868 5868 5869 5869 5868 5868 5867 5866 5864 5863 5861 5859 5857 5856 5854 5853 5851 5850 5848 5847 5845 5844 5842 5841 5840 5839 5838 5837 5836 5836 5835 5835 5835 5835 5834 5835 5835 5835 5836 5837
5866 5866 5867 5867 5868 5868 5867 5867 5866 5865 5864 5863 5861 5859 5857 5855 5853 5851 5850 5848 5847 5845 5844 5842 5840 5839 5837 5836 5834 5833 5832 5831 5830 5829 5829 5828 5828 5828 5828 5828 5828 5829 5830